Temp
68 67 68 68 67 67 67 68 69 69 67 68 68 69 65 65 61 58 59 62 64 70 72 67 69 71 68 64 65 65 64 62 62 61 58 55 53 54 55 54 55 54 53 54 55 54 54 55 56 58 59 59 59 57 57 57 56 56 58 59 58 56 56 55 54 57 59 59 57 57 56 56 56 56
68 68 69 67 67 67 68 68 69 68 68 68 69 68 68 68 63 62 59 60 65 63 69 70 67 69 68 67 65 66 65 61 65 64 61 57 53 53 53 53 53 52 53 53 51 52 54 56 57 59 59 58 57 56 56 56 56 58 59 59 58 57 57 58 59 59 59 58 57 56 57 57 56 56
69 68 68 67 66 66 67 68 67 67 68 68 70 69 69 68 67 65 62 58 63 66 63 67 72 69 69 71 68 68 67 64 65 62 60 59 54 54 54 53 53 53 54 52 52 55 56 54 55 57 58 58 57 57 58 58 58 59 58 56 56 58 57 57 58 60 59 58 58 57 57 57 56 56
70 68 68 67 66 66 67 66 67 67 68 70 69 69 69 68 67 65 64 61 61 65 65 66 70 71 69 71 68 66 69 67 62 64 61 57 55 57 54 53 53 53 53 53 56 59 58 56 57 58 58 59 58 58 58 59 60 57 54 54 55 56 56 56 56 59 58 58 57 56 57 56 56 55
71 70 68 68 68 68 65 65 67 69 71 70 70 70 68 67 68 66 63 61 60 63 65 65 69 71 70 70 70 67 65 63 64 64 61 57 57 60 57 56 52 52 53 52 53 54 53 54 58 56 55 57 56 54 53 54 53 54 54 52 52 52 54 56 54 54 56 57 56 56 56 55 54 54
72 69 68 69 68 68 68 67 72 73 72 73 72 71 70 69 68 69 67 63 60 59 65 64 69 68 72 67 71 65 63 62 65 64 61 61 63 64 61 58 55 51 53 52 52 53 53 52 53 52 49 51 51 52 52 52 51 52 50 48 51 53 55 56 53 52 55 55 55 55 54 54 53 54
71 69 68 68 68 70 69 69 70 71 72 74 75 71 71 69 69 71 69 65 61 61 62 63 66 65 67 64 69 69 68 67 68 65 63 63 66 68 64 63 62 52 51 51 52 52 52 52 51 52 51 50 50 50 50 51 50 49 49 47 50 50 51 50 50 49 51 54 54 54 53 52 53 55
71 69 68 67 69 69 67 69 69 70 70 70 72 70 69 68 69 68 67 66 63 61 62 62 68 67 64 66 72 71 70 67 67 67 65 66 67 68 68 67 66 57 51 51 52 52 52 52 51 51 51 51 50 50 51 50 50 49 49 48 48 49 47 48 47 47 49 51 53 54 52 52 54 56
70 67 66 66 68 69 69 67 68 69 68 74 71 70 70 69 68 68 67 67 68 64 62 63 65 66 67 69 69 70 68 67 68 69 66 67 66 67 68 69 70 57 53 52 52 52 52 52 51 51 51 50 50 50 50 50 50 49 50 49 49 48 47 47 47 47 47 47 49 53 52 50 53 55
70 68 67 67 70 70 68 67 69 70 71 71 70 70 71 72 70 68 66 67 66 66 64 64 63 64 65 66 65 70 68 66 65 66 67 68 69 66 65 68 70 65 58 56 55 51 51 51 51 51 51 50 49 49 49 49 49 49 49 49 49 48 48 47 47 46 46 46 46 46 49 50 52 54
71 71 71 69 69 69 69 69 68 68 67 68 68 68 68 70 67 66 67 68 67 67 65 64 64 63 66 64 62 69 71 69 67 63 62 62 68 65 65 63 62 63 59 58 55 55 54 55 53 51 50 50 50 50 49 49 49 49 47 47 48 48 48 48 48 47 47 47 46 46 44 46 49 51
70 71 71 70 70 69 67 68 67 67 66 67 67 67 68 66 66 66 66 66 65 66 65 64 63 63 63 63 65 71 70 67 66 68 63 59 60 62 64 64 59 61 58 58 59 57 55 54 53 52 50 50 49 48 49 50 50 49 47 47 47 48 48 48 48 48 47 47 47 46 45 44 43 47
71 70 69 67 65 64 60 56 58 58 61 67 65 65 66 66 64 65 65 66 63 63 64 61 64 62 62 61 62 62 61 59 59 63 65 62 63 63 62 65 65 64 59 60 60 60 57 58 56 56 53 53 49 50 49 50 50 49 46 47 47 48 48 48 48 48 48 47 47 46 46 44 44 44
71 69 66 65 63 59 58 53 49 48 51 55 61 61 63 64 64 63 63 62 63 63 61 61 61 60 61 59 61 61 61 65 66 64 62 62 61 63 63 63 64 65 63 60 60 61 62 59 58 57 56 56 52 52 50 52 50 49 47 47 47 48 47 47 47 47 47 46 47 46 45 45 44 43
68 69 68 65 64 64 62 54 46 47 46 44 45 46 49 55 61 62 61 61 62 63 61 61 60 60 59 59 61 60 63 62 63 61 62 62 61 60 58 55 60 68 67 62 61 61 62 62 58 58 58 57 53 55 53 51 50 49 47 47 47 47 48 47 47 46 46 45 45 45 45 44 45 44
69 68 67 67 68 67 66 64 61 54 48 48 45 44 45 45 44 48 59 61 60 60 60 61 60 58 59 60 61 61 60 59 59 60 61 62 60 59 57 57 57 61 65 64 62 60 62 63 61 59 61 59 56 57 54 51 50 48 47 47 47 48 48 47 47 46 46 45 45 44 44 44 44 42
69 69 68 68 69 72 68 69 67 65 58 45 41 45 50 51 54 50 46 49 56 58 58 59 59 61 61 61 60 58 59 61 59 59 59 59 58 59 59 59 60 60 64 63 58 57 58 61 59 59 61 60 57 58 53 51 50 48 48 48 47 47 47 47 46 45 45 44 44 44 44 43 42 43
64 63 61 62 61 61 63 60 57 63 65 63 63 63 63 65 57 48 50 49 42 47 57 59 60 60 62 60 60 61 62 61 59 58 57 59 58 57 57 59 60 60 65 61 58 58 57 61 59 59 59 59 57 56 53 50 49 48 48 47 47 47 46 47 46 45 45 44 44 43 43 43 43 42
62 62 62 62 61 61 62 52 49 53 59 62 61 60 61 62 61 60 60 60 59 59 59 59 61 61 59 58 58 59 59 60 60 61 59 58 58 58 58 57 58 57 59 58 57 53 56 57 57 58 59 58 56 54 48 49 48 48 48 47 47 47 46 46 45 45 45 44 44 44 43 42 42 42
61 61 60 60 60 61 58 44 41 44 52 61 62 60 59 58 59 61 58 53 51 53 55 56 55 55 53 51 56 55 56 57 58 59 59 59 58 57 55 55 54 54 57 58 57 53 53 54 55 55 55 57 54 53 51 48 49 48 47 47 46 46 46 45 45 45 45 44 44 44 43 42 42 41
58 57 59 61 60 58 50 40 39 40 48 60 62 61 59 57 57 58 61 55 45 42 43 43 44 44 43 42 43 43 43 52 55 57 56 55 58 55 52 54 53 54 54 56 56 53 50 53 54 52 51 51 53 55 53 49 46 47 47 46 46 46 45 45 45 45 45 45 45 44 43 43 42 42
54 51 51 56 57 53 47 38 39 39 50 57 59 60 59 56 56 57 60 62 58 43 42 42 41 41 44 45 44 45 44 42 46 57 55 58 57 56 55 54 55 53 53 53 55 53 50 52 52 51 52 51 53 54 53 50 48 46 46 46 46 45 46 45 45 45 45 45 45 44 43 43 42 42
53 50 47 45 45 47 41 37 37 38 47 55 55 56 57 57 57 55 56 57 58 58 57 56 53 50 46 47 51 51 42 44 49 57 59 58 57 55 54 54 54 51 51 55 57 53 50 51 52 50 51 50 51 50 49 48 48 47 48 46 46 45 45 45 45 45 45 45 44 44 43 43 42 43
56 55 53 47 39 38 38 37 37 37 39 50 52 54 56 56 54 52 53 56 58 59 58 58 57 56 57 56 55 54 51 52 54 56 58 59 58 57 56 56 56 55 52 52 55 52 52 54 51 54 50 46 42 50 51 50 50 49 49 49 47 45 44 44 44 44 44 44 44 44 44 44 44 43
58 57 54 51 40 39 39 38 38 38 37 39 49 52 55 51 48 44 51 55 51 57 57 57 57 58 58 58 58 56 56 55 56 55 57 57 56 55 53 53 53 52 51 52 49 54 49 51 51 53 52 51 50 50 51 51 51 49 50 50 49 48 46 46 46 48 46 43 43 43 43 43 43 43
57 55 53 52 43 39 40 39 39 38 39 36 44 50 40 39 39 45 50 52 55 57 57 57 56 58 59 59 59 59 58 57 56 57 56 53 53 52 52 51 50 51 48 50 46 51 48 48 51 51 50 50 49 49 48 49 51 52 52 52 51 49 48 47 47 48 48 46 44 43 43 43 43 43
55 54 54 52 43 39 40 40 39 40 37 39 47 39 37 39 37 40 50 54 55 56 57 57 56 54 56 57 56 56 54 55 54 52 52 52 51 51 52 51 51 49 48 49 50 49 49 48 47 48 47 48 46 47 45 44 46 49 50 49 48 50 51 49 47 47 47 45 47 44 42 42 42 43
54 53 52 48 39 39 40 40 39 39 39 44 43 39 38 36 38 45 50 50 54 51 51 52 53 53 54 53 53 51 52 51 52 52 52 53 54 52 50 50 50 50 49 49 49 48 48 48 47 47 47 44 45 43 43 46 47 47 46 48 49 50 50 48 45 46 46 45 47 48 47 46 47 47
50 42 37 37 38 38 38 38 39 42 45 42 38 36 34 39 46 50 51 52 53 51 50 50 53 53 53 54 53 51 52 51 52 51 52 52 52 50 49 49 49 49 50 50 49 50 49 48 47 47 46 46 43 44 43 43 44 45 46 46 44 47 47 47 46 44 44 44 46 46 46 45 46 46
44 43 40 40 42 42 43 48 52 53 52 43 39 36 35 47 50 52 53 54 53 53 53 52 52 51 52 50 53 53 52 50 49 50 50 48 48 49 48 47 48 50 50 50 49 49 49 48 47 47 46 47 46 45 43 42 43 45 46 46 46 46 48 46 45 43 44 44 44 44 45 46 47 47
50 49 48 49 45 45 45 44 43 44 45 48 49 48 47 48 52 54 55 55 53 50 51 50 51 51 49 51 51 49 48 47 48 51 48 47 46 48 47 47 45 46 48 48 48 49 48 47 47 48 44 45 45 46 46 47 44 45 45 46 45 41 46 46 44 45 45 44 44 45 45 44 45 46
43 46 45 48 52 53 52 53 53 54 55 54 52 54 55 55 56 53 50 50 52 52 52 51 50 49 50 49 49 47 45 44 45 48 47 47 46 46 47 44 42 44 45 46 48 48 47 48 48 47 47 45 43 45 46 45 44 43 43 45 46 47 47 45 45 45 44 44 44 43 43 44 44 47
43 46 49 49 51 53 46 45 51 52 51 48 52 54 54 54 54 52 52 50 49 48 48 46 45 45 45 44 45 44 43 41 41 44 45 44 43 43 43 40 40 40 40 40 41 45 46 47 47 46 45 45 45 45 43 40 42 43 43 45 45 45 46 46 44 45 45 44 43 42 40 43 45 46
36 39 41 44 47 47 46 45 45 44 46 44 44 45 45 48 50 48 49 49 47 44 42 43 39 38 38 40 41 41 40 41 41 40 39 40 40 39 38 37 39 40 39 40 41 42 43 43 43 44 44 43 45 45 44 43 42 44 44 46 45 45 45 45 44 44 44 44 43 39 39 41 44 45
38 42 42 44 46 46 48 45 45 44 44 44 43 43 44 47 44 42 45 46 41 40 40 38 37 36 37 36 36 36 37 38 39 38 38 39 38 37 37 36 36 37 38 38 39 40 42 41 41 40 41 41 40 43 47 47 44 44 45 45 45 44 44 44 42 42 42 43 43 39 38 41 42 45
43 45 46 46 45 45 44 43 42 44 45 45 45 44 43 43 43 42 42 43 45 40 39 37 36 36 36 35 35 35 36 37 37 37 36 36 36 36 37 37 37 37 38 39 40 42 42 43 43 40 37 37 36 35 37 45 45 45 41 38 44 43 44 43 42 42 41 40 41 41 38 36 40 43
45 44 45 46 47 46 43 43 43 43 45 45 44 45 43 43 44 48 46 41 43 38 38 37 36 36 35 35 36 36 37 37 37 36 36 37 36 36 36 36 36 37 38 39 40 41 43 41 42 40 36 34 34 34 35 39 42 45 45 40 39 43 41 40 39 38 39 42 39 40 39 38 37 41
45 44 46 47 47 46 44 43 42 41 42 43 43 43 45 46 47 46 46 45 41 39 38 37 37 37 38 38 38 37 37 36 35 35 35 36 35 35 35 35 36 38 40 41 42 42 44 42 41 40 38 34 33 33 34 37 38 40 44 44 38 36 38 38 37 36 36 40 41 41 42 38 38 42
50 47 46 46 45 45 43 43 42 41 44 43 43 42 43 45 44 42 41 40 42 40 39 38 38 37 37 36 36 36 36 36 36 36 36 36 36 36 35 35 35 37 38 37 40 41 42 40 39 38 38 35 34 35 36 35 35 38 40 43 42 37 36 38 37 36 37 36 37 41 40 41 44 43
49 48 47 46 46 46 45 45 41 43 41 42 43 44 43 41 41 40 39 39 40 40 40 39 38 39 39 38 37 37 37 36 36 36 36 36 36 36 36 36 35 36 36 36 36 38 38 39 39 39 38 40 38 38 37 37 36 37 39 40 42 43 40 40 38 37 35 39 40 37 37 38 37 40
48 48 47 47 46 45 44 44 44 41 42 43 43 40 43 43 41 39 39 39 38 40 40 39 38 38 38 38 38 38 37 37 37 38 38 38 36 37 36 35 36 38 36 34 35 35 36 38 39 37 38 39 38 39 36 35 35 36 38 41 41 41 42 43 43 41 37 37 37 36 36 37 37 36
48 47 47 47 46 45 45 44 44 41 42 42 40 40 40 39 38 39 39 38 38 38 39 39 39 38 38 38 38 38 37 37 37 37 37 37 36 36 35 35 36 38 36 35 35 35 38 41 39 38 38 36 36 35 33 34 34 36 38 39 37 39 40 39 40 40 40 39 36 35 35 34 34 33
46 47 46 45 46 45 45 44 44 43 40 40 39 38 38 39 39 39 38 39 38 38 38 38 38 38 38 38 38 38 38 38 38 37 38 37 37 37 37 37 38 39 37 37 36 37 38 40 40 38 36 37 35 35 34 35 36 36 36 36 37 36 37 40 40 39 39 38 39 38 37 35 35 30
47 46 46 45 44 44 44 44 43 42 39 38 37 37 37 37 38 38 38 38 38 38 38 38 39 38 39 40 39 38 37 37 38 37 38 37 38 38 39 39 40 38 38 37 37 37 38 38 38 37 37 36 36 35 35 35 35 35 35 36 37 37 37 38 38 38 38 38 38 38 38 38 38 38
46 46 44 43 41 40 41 42 39 41 39 38 38 37 37 38 38 38 39 38 38 38 38 38 38 38 39 38 38 38 38 40 39 39 39 38 37 38 38 38 37 37 37 37 38 38 38 37 38 38 38 37 37 38 36 36 36 36 36 37 37 36 36 38 36 37 37 38 39 39 38 38 37 37
MSLP
1019.75 1019.79 1019.83 1019.99 1020.15 1020.27 1020.27 1020.35 1020.35 1020.35 1020.51 1020.71 1020.79 1020.91 1021.35 1021.59 1022.35 1022.83 1023.03 1022.87 1022.87 1022.63 1022.47 1023.31 1023.35 1023.27 1023.63 1023.99 1024.23 1024.47 1024.67 1024.79 1024.87 1025.07 1025.31 1025.51 1025.67 1025.75 1025.75 1025.79 1025.79 1025.83 1025.91 1025.91 1025.95 1025.99 1026.03 1026.11 1026.15 1026.23 1026.31 1026.43 1026.51 1026.63 1026.71 1026.79 1026.87 1026.95 1026.99 1027.07 1027.19 1027.27 1027.39 1027.47 1027.55 1027.55 1027.51 1027.55 1027.59 1027.63 1027.67 1027.67 1027.71 1027.71
1019.67 1019.71 1019.79 1019.99 1020.19 1020.19 1020.19 1020.19 1020.15 1020.27 1020.43 1020.55 1020.59 1020.75 1020.79 1021.03 1021.83 1022.19 1022.79 1022.91 1022.19 1022.35 1022.15 1022.47 1023.27 1023.35 1023.71 1023.91 1024.19 1024.31 1024.55 1024.63 1024.71 1024.95 1025.23 1025.51 1025.71 1025.79 1025.83 1025.83 1025.87 1025.95 1025.99 1026.03 1026.03 1026.07 1026.07 1026.11 1026.19 1026.27 1026.35 1026.47 1026.59 1026.71 1026.79 1026.83 1026.91 1026.95 1026.99 1027.07 1027.15 1027.23 1027.31 1027.39 1027.43 1027.47 1027.55 1027.59 1027.63 1027.67 1027.71 1027.75 1027.79 1027.79
1019.59 1019.75 1019.87 1019.99 1020.15 1020.15 1020.15 1020.15 1020.19 1020.19 1020.31 1020.35 1020.43 1020.51 1020.55 1020.75 1021.07 1021.63 1022.19 1022.99 1022.35 1021.83 1022.59 1022.51 1022.59 1023.15 1023.47 1023.63 1023.83 1024.07 1024.31 1024.47 1024.55 1024.83 1025.11 1025.43 1025.67 1025.75 1025.83 1025.87 1025.91 1025.95 1025.99 1026.03 1026.07 1026.07 1026.11 1026.19 1026.23 1026.31 1026.39 1026.51 1026.59 1026.71 1026.75 1026.83 1026.91 1026.91 1027.03 1027.11 1027.15 1027.15 1027.23 1027.31 1027.39 1027.39 1027.51 1027.55 1027.63 1027.71 1027.75 1027.79 1027.83 1027.83
1019.51 1019.71 1019.95 1020.07 1020.15 1020.15 1020.27 1020.31 1020.23 1020.23 1020.15 1020.15 1020.23 1020.23 1020.43 1020.75 1020.91 1021.23 1021.87 1022.51 1022.83 1021.99 1022.27 1022.47 1022.63 1022.83 1023.19 1023.31 1023.71 1024.03 1024.19 1024.35 1024.47 1024.67 1024.99 1025.35 1025.59 1025.67 1025.83 1025.91 1025.91 1025.91 1025.99 1026.03 1026.07 1026.07 1026.15 1026.23 1026.31 1026.35 1026.43 1026.47 1026.55 1026.63 1026.67 1026.75 1026.83 1026.95 1027.07 1027.15 1027.15 1027.15 1027.19 1027.27 1027.35 1027.39 1027.47 1027.55 1027.63 1027.71 1027.75 1027.79 1027.79 1027.79
1019.43 1019.67 1019.87 1020.03 1020.11 1020.11 1020.31 1020.31 1020.27 1020.27 1020.19 1020.07 1020.11 1020.23 1020.47 1020.95 1021.03 1021.27 1021.79 1022.39 1022.67 1022.35 1021.99 1022.27 1022.55 1022.63 1022.79 1023.31 1023.47 1023.91 1024.11 1024.35 1024.47 1024.63 1025.03 1025.35 1025.47 1025.51 1025.71 1025.83 1025.95 1025.99 1025.99 1026.03 1026.07 1026.11 1026.19 1026.27 1026.31 1026.35 1026.39 1026.47 1026.55 1026.63 1026.75 1026.79 1026.91 1026.99 1027.07 1027.11 1027.15 1027.19 1027.23 1027.27 1027.35 1027.43 1027.51 1027.55 1027.63 1027.71 1027.71 1027.75 1027.75 1027.75
1019.35 1019.63 1019.91 1020.03 1020.15 1020.19 1020.35 1020.39 1020.31 1020.15 1019.95 1020.03 1020.23 1020.39 1020.55 1021.07 1021.19 1021.11 1021.63 1022.11 1022.59 1022.91 1022.35 1022.39 1022.31 1022.59 1022.55 1023.27 1023.27 1023.71 1024.07 1024.27 1024.31 1024.67 1025.07 1025.31 1025.31 1025.35 1025.55 1025.75 1025.95 1026.07 1026.03 1026.07 1026.07 1026.11 1026.19 1026.27 1026.31 1026.39 1026.47 1026.55 1026.63 1026.67 1026.75 1026.83 1026.91 1026.99 1027.07 1027.11 1027.19 1027.23 1027.27 1027.31 1027.39 1027.43 1027.47 1027.55 1027.59 1027.63 1027.67 1027.71 1027.71 1027.67
1019.43 1019.75 1019.91 1020.11 1020.23 1020.23 1020.39 1020.27 1020.07 1019.95 1019.99 1019.91 1020.15 1020.35 1020.39 1020.75 1021.03 1021.07 1021.31 1021.87 1022.59 1022.79 1022.75 1022.35 1022.63 1022.71 1022.71 1022.99 1023.23 1023.47 1023.71 1023.91 1024.07 1024.55 1024.91 1025.11 1025.19 1025.11 1025.35 1025.55 1025.75 1025.95 1025.99 1025.99 1025.95 1025.99 1026.11 1026.23 1026.31 1026.39 1026.43 1026.51 1026.59 1026.67 1026.71 1026.79 1026.87 1026.95 1027.03 1027.07 1027.15 1027.23 1027.31 1027.39 1027.43 1027.47 1027.51 1027.51 1027.55 1027.59 1027.67 1027.67 1027.63 1027.55
1019.51 1019.79 1020.07 1020.27 1020.27 1020.15 1020.23 1020.27 1020.15 1020.07 1019.99 1020.11 1020.07 1020.39 1020.51 1020.67 1021.03 1021.19 1021.39 1021.55 1022.07 1022.47 1022.87 1022.55 1022.51 1022.59 1022.79 1022.75 1022.75 1023.19 1023.59 1023.87 1023.95 1024.23 1024.63 1024.75 1024.91 1024.83 1024.95 1025.15 1025.27 1025.51 1025.67 1025.71 1025.71 1025.75 1025.83 1025.95 1026.07 1026.23 1026.31 1026.39 1026.47 1026.55 1026.63 1026.71 1026.79 1026.87 1026.91 1026.99 1027.03 1027.11 1027.23 1027.35 1027.43 1027.43 1027.47 1027.51 1027.55 1027.59 1027.67 1027.67 1027.63 1027.55
1019.63 1019.95 1020.31 1020.67 1020.51 1020.15 1020.31 1020.31 1020.31 1020.27 1020.27 1020.11 1020.23 1020.59 1020.75 1020.87 1021.11 1021.23 1021.27 1021.51 1021.59 1022.11 1022.59 1022.55 1022.23 1022.31 1022.47 1022.47 1022.59 1022.95 1023.59 1023.83 1023.87 1023.83 1024.27 1024.43 1024.55 1024.55 1024.39 1024.51 1024.51 1024.79 1025.03 1025.19 1025.51 1025.71 1025.79 1025.83 1025.87 1025.95 1026.07 1026.19 1026.27 1026.39 1026.47 1026.55 1026.67 1026.75 1026.83 1026.87 1026.99 1027.07 1027.19 1027.31 1027.39 1027.43 1027.47 1027.51 1027.55 1027.55 1027.67 1027.75 1027.71 1027.67
1019.79 1019.99 1020.43 1020.75 1020.27 1020.27 1020.39 1020.51 1020.47 1020.35 1020.43 1020.39 1020.51 1020.75 1020.87 1020.91 1021.11 1021.31 1021.31 1021.35 1021.67 1021.91 1022.23 1022.27 1022.47 1022.39 1022.63 1022.67 1022.55 1022.71 1022.99 1023.51 1023.87 1023.79 1023.87 1023.95 1024.03 1024.19 1024.27 1024.03 1023.87 1024.15 1024.75 1025.35 1025.51 1025.59 1025.59 1025.63 1025.67 1025.67 1025.75 1025.87 1026.03 1026.15 1026.27 1026.39 1026.55 1026.71 1026.79 1026.87 1026.95 1027.03 1027.11 1027.19 1027.27 1027.35 1027.39 1027.43 1027.55 1027.63 1027.71 1027.75 1027.75 1027.71
1019.55 1019.79 1020.03 1020.19 1020.23 1020.35 1020.43 1020.59 1020.67 1020.63 1020.67 1020.75 1020.91 1020.87 1021.07 1021.07 1021.31 1021.51 1021.51 1021.47 1021.59 1021.79 1022.07 1022.15 1022.11 1022.35 1022.27 1022.31 1022.67 1022.35 1022.43 1022.83 1023.19 1023.63 1023.71 1023.87 1023.63 1023.63 1023.75 1023.83 1023.91 1023.99 1024.43 1024.55 1024.63 1024.75 1024.87 1025.03 1025.27 1025.43 1025.55 1025.63 1025.75 1025.91 1026.03 1026.15 1026.31 1026.51 1026.63 1026.75 1026.87 1026.99 1027.11 1027.19 1027.23 1027.27 1027.35 1027.47 1027.59 1027.67 1027.75 1027.79 1027.75 1027.67
1019.55 1019.71 1019.87 1019.99 1020.19 1020.43 1020.59 1020.67 1020.83 1020.87 1021.03 1020.99 1021.19 1021.07 1021.07 1021.23 1021.47 1021.67 1021.67 1021.67 1021.75 1021.83 1021.95 1022.19 1022.43 1022.19 1022.47 1022.23 1022.07 1021.99 1022.27 1022.83 1022.99 1022.91 1023.23 1023.63 1023.55 1023.43 1023.23 1023.23 1023.71 1023.91 1024.15 1024.47 1024.71 1024.83 1025.03 1025.11 1025.15 1025.27 1025.39 1025.47 1025.59 1025.75 1025.87 1025.99 1026.07 1026.23 1026.39 1026.55 1026.75 1026.95 1027.07 1027.15 1027.19 1027.27 1027.35 1027.47 1027.55 1027.63 1027.71 1027.71 1027.67 1027.63
1019.67 1019.83 1020.15 1020.39 1020.55 1020.67 1020.87 1020.95 1021.11 1021.27 1021.15 1021.27 1021.55 1021.47 1021.27 1021.31 1021.47 1021.63 1021.75 1021.75 1021.91 1022.11 1022.27 1022.63 1022.47 1022.67 1022.75 1022.75 1022.59 1022.51 1022.51 1022.75 1022.83 1022.55 1022.55 1022.87 1022.83 1022.79 1023.03 1022.95 1022.99 1023.19 1023.83 1024.03 1024.15 1024.39 1024.55 1024.71 1024.83 1024.99 1025.19 1025.23 1025.47 1025.63 1025.71 1025.87 1025.99 1026.11 1026.27 1026.47 1026.59 1026.71 1026.87 1026.99 1027.15 1027.23 1027.35 1027.43 1027.47 1027.55 1027.59 1027.59 1027.59 1027.55
1019.79 1020.19 1020.43 1020.67 1020.75 1020.87 1020.99 1021.15 1021.31 1021.31 1021.35 1021.47 1021.51 1021.67 1021.71 1021.71 1021.75 1021.91 1021.99 1022.15 1022.23 1022.35 1022.63 1022.79 1022.83 1022.79 1022.95 1023.15 1023.03 1022.79 1022.59 1022.31 1022.19 1022.39 1022.51 1022.71 1022.51 1022.51 1022.67 1022.63 1022.63 1022.75 1023.07 1023.55 1023.87 1023.79 1023.91 1024.19 1024.39 1024.63 1024.75 1024.79 1025.07 1025.19 1025.47 1025.51 1025.63 1025.83 1026.03 1026.15 1026.31 1026.47 1026.63 1026.79 1026.95 1027.11 1027.27 1027.35 1027.43 1027.43 1027.47 1027.47 1027.47 1027.43
1020.11 1020.19 1020.39 1020.55 1020.67 1020.79 1020.95 1021.15 1021.27 1021.39 1021.55 1021.71 1021.83 1021.91 1021.99 1022.07 1022.03 1022.11 1022.23 1022.27 1022.19 1022.35 1022.43 1022.51 1022.75 1022.91 1023.07 1022.91 1022.79 1022.95 1022.91 1022.71 1022.71 1022.75 1022.63 1022.55 1022.43 1022.63 1022.91 1023.19 1022.51 1022.11 1022.51 1023.11 1023.27 1023.39 1023.35 1023.63 1023.91 1023.95 1024.07 1024.19 1024.55 1024.71 1024.83 1025.03 1025.31 1025.47 1025.67 1025.83 1026.03 1026.23 1026.47 1026.67 1026.87 1027.03 1027.19 1027.27 1027.31 1027.31 1027.35 1027.31 1027.31 1027.27
1020.19 1020.27 1020.51 1020.63 1020.71 1020.83 1020.95 1021.11 1021.31 1021.39 1021.55 1021.71 1021.87 1021.99 1022.07 1022.15 1022.31 1022.35 1022.35 1022.51 1022.55 1022.67 1022.83 1022.75 1022.63 1022.59 1022.71 1022.79 1022.71 1022.71 1022.79 1022.75 1022.75 1022.83 1022.91 1022.83 1022.63 1022.59 1022.75 1022.75 1022.87 1022.23 1022.19 1022.71 1022.83 1022.91 1022.75 1023.03 1023.19 1023.43 1023.43 1023.59 1023.83 1023.95 1024.19 1024.75 1025.03 1025.31 1025.51 1025.67 1025.87 1026.07 1026.27 1026.55 1026.79 1026.95 1027.07 1027.11 1027.11 1027.11 1027.07 1027.11 1027.07 1027.03
1020.19 1020.31 1020.43 1020.75 1020.75 1020.95 1021.03 1021.23 1021.27 1021.31 1021.55 1021.83 1021.95 1021.95 1022.03 1022.07 1022.03 1022.27 1022.51 1022.71 1022.79 1022.79 1022.91 1022.95 1022.83 1022.63 1022.51 1022.67 1022.59 1022.55 1022.47 1022.39 1022.67 1022.71 1022.91 1022.83 1022.83 1022.63 1022.47 1022.35 1022.23 1022.11 1021.83 1022.23 1022.59 1022.87 1022.99 1022.95 1023.03 1023.07 1022.87 1022.99 1023.35 1023.63 1023.95 1024.31 1024.71 1025.11 1025.39 1025.59 1025.79 1025.95 1026.19 1026.43 1026.63 1026.79 1026.91 1026.87 1026.83 1026.83 1026.87 1026.87 1026.79 1026.75
1021.31 1021.59 1021.83 1021.75 1022.03 1021.91 1021.99 1022.39 1022.39 1022.03 1021.83 1021.87 1021.99 1022.07 1022.11 1022.11 1022.31 1022.35 1022.31 1022.43 1022.63 1022.75 1022.79 1022.79 1022.79 1022.43 1022.35 1022.59 1022.55 1022.39 1022.31 1022.51 1022.71 1022.79 1022.79 1022.67 1022.67 1022.63 1022.67 1022.47 1022.35 1022.15 1021.79 1022.19 1022.51 1022.63 1022.55 1022.51 1022.67 1022.91 1022.71 1022.91 1023.11 1023.23 1023.47 1023.95 1024.43 1024.79 1025.11 1025.35 1025.63 1025.87 1026.07 1026.23 1026.43 1026.59 1026.67 1026.55 1026.55 1026.59 1026.59 1026.55 1026.55 1026.59
1021.31 1021.55 1022.07 1022.15 1022.15 1021.99 1022.15 1022.79 1022.99 1022.67 1022.55 1022.19 1022.15 1022.31 1022.47 1022.55 1022.55 1022.47 1022.51 1022.67 1022.79 1022.75 1022.63 1022.63 1022.55 1022.31 1022.31 1022.43 1022.51 1022.51 1022.47 1022.51 1022.59 1022.51 1022.59 1022.55 1022.51 1022.35 1022.23 1022.23 1022.19 1022.15 1022.11 1022.27 1022.79 1023.27 1022.71 1022.59 1022.99 1022.95 1022.83 1023.11 1023.23 1023.35 1023.59 1023.79 1024.15 1024.47 1024.75 1025.11 1025.51 1025.71 1025.91 1026.07 1026.23 1026.31 1026.27 1026.27 1026.31 1026.31 1026.31 1026.35 1026.47 1026.55
1021.91 1021.99 1021.95 1022.47 1022.87 1022.15 1022.43 1023.23 1023.07 1022.99 1022.79 1022.35 1022.19 1022.35 1022.59 1022.63 1022.51 1022.55 1022.47 1022.55 1022.71 1022.79 1022.83 1022.75 1022.67 1022.63 1022.63 1022.47 1022.39 1022.43 1022.47 1022.47 1022.47 1022.43 1022.39 1022.31 1022.35 1022.47 1022.47 1022.51 1022.27 1022.27 1022.03 1022.07 1022.31 1022.59 1022.59 1022.35 1022.67 1022.83 1022.67 1023.03 1023.59 1023.75 1023.79 1023.83 1023.91 1024.31 1024.79 1025.15 1025.35 1025.47 1025.67 1025.83 1025.95 1025.95 1025.99 1025.99 1026.03 1026.07 1026.15 1026.27 1026.43 1026.55
1022.15 1022.31 1022.23 1022.51 1023.07 1022.83 1023.11 1023.35 1023.07 1022.91 1022.59 1022.47 1022.39 1022.51 1022.99 1023.43 1023.35 1022.87 1022.51 1022.35 1022.43 1022.51 1022.51 1022.59 1022.59 1022.55 1022.59 1022.55 1022.43 1022.39 1022.47 1022.39 1022.35 1022.43 1022.55 1022.51 1022.31 1022.47 1022.55 1022.31 1022.23 1022.11 1022.11 1022.11 1022.11 1022.39 1022.55 1022.39 1022.51 1022.67 1022.95 1022.91 1023.19 1023.55 1023.91 1024.27 1024.59 1024.67 1024.75 1024.95 1025.07 1025.19 1025.39 1025.55 1025.63 1025.63 1025.63 1025.63 1025.71 1025.87 1026.03 1026.23 1026.39 1026.51
1022.87 1023.15 1022.99 1023.07 1023.23 1023.55 1023.75 1023.59 1023.27 1023.07 1022.87 1022.87 1022.87 1022.75 1022.75 1022.75 1022.79 1022.75 1022.43 1022.15 1022.15 1022.39 1022.51 1022.43 1022.31 1022.27 1022.27 1022.31 1022.31 1022.27 1022.27 1022.27 1022.35 1022.23 1022.31 1022.03 1022.03 1022.19 1022.15 1022.19 1021.99 1021.87 1021.95 1021.95 1021.99 1022.39 1022.27 1022.39 1022.47 1022.59 1022.75 1022.91 1022.99 1023.35 1023.75 1024.15 1024.59 1024.91 1024.87 1024.75 1024.83 1025.11 1025.23 1025.35 1025.39 1025.35 1025.27 1025.31 1025.47 1025.79 1025.99 1026.15 1026.31 1026.35
1022.83 1023.15 1023.31 1023.43 1023.55 1023.51 1023.71 1023.67 1023.59 1023.51 1023.23 1023.15 1023.31 1023.35 1023.15 1022.87 1022.79 1023.23 1023.27 1022.83 1022.35 1022.19 1022.15 1022.07 1022.07 1022.03 1022.07 1022.11 1022.03 1022.07 1022.19 1022.15 1022.11 1021.99 1021.87 1021.75 1021.87 1021.91 1021.83 1021.75 1021.75 1021.95 1022.07 1021.83 1021.79 1022.07 1022.23 1022.39 1022.47 1022.63 1022.95 1022.99 1022.87 1023.15 1023.67 1024.07 1024.43 1024.67 1024.63 1024.63 1024.79 1024.91 1025.03 1025.11 1025.11 1024.99 1024.91 1025.03 1025.39 1025.59 1025.79 1025.95 1026.03 1026.11
1022.91 1023.11 1023.47 1023.59 1023.59 1023.51 1023.51 1023.55 1023.67 1023.79 1023.71 1023.47 1023.55 1023.43 1023.19 1023.31 1023.27 1023.63 1023.59 1023.11 1022.59 1022.23 1022.07 1021.95 1021.79 1021.71 1021.55 1021.55 1021.63 1021.79 1021.99 1022.03 1021.95 1021.87 1021.79 1021.79 1021.75 1021.75 1021.67 1021.59 1021.51 1021.51 1021.55 1021.75 1021.79 1021.95 1021.95 1022.03 1022.23 1022.15 1022.39 1022.87 1023.19 1022.79 1023.19 1023.67 1023.91 1024.15 1024.23 1024.43 1024.63 1024.71 1024.95 1024.99 1024.91 1024.75 1024.71 1025.03 1025.31 1025.43 1025.63 1025.67 1025.71 1025.87
1022.67 1023.11 1023.43 1023.79 1023.99 1023.87 1023.79 1023.75 1023.79 1023.83 1023.83 1023.79 1023.59 1023.47 1023.39 1023.67 1023.87 1024.07 1023.59 1022.95 1022.67 1022.35 1022.03 1021.91 1021.83 1021.67 1021.51 1021.43 1021.43 1021.39 1021.39 1021.51 1021.59 1021.67 1021.71 1021.75 1021.95 1022.03 1021.95 1021.79 1022.03 1022.35 1022.19 1022.03 1022.03 1021.91 1022.07 1022.11 1022.11 1022.15 1022.35 1022.27 1022.47 1022.59 1023.03 1023.27 1023.67 1023.95 1024.07 1024.19 1024.27 1024.43 1024.83 1024.83 1024.75 1024.63 1024.67 1024.99 1025.19 1025.31 1025.51 1025.51 1025.47 1025.63
1023.03 1023.43 1023.59 1023.75 1024.03 1023.99 1023.91 1023.83 1023.75 1023.75 1023.79 1023.83 1023.67 1023.55 1023.67 1023.99 1024.07 1023.95 1023.71 1023.31 1022.71 1022.19 1021.99 1021.91 1021.79 1021.63 1021.55 1021.43 1021.27 1021.15 1021.11 1021.19 1021.27 1021.35 1021.67 1021.99 1022.15 1022.39 1022.55 1022.43 1022.15 1021.75 1022.03 1022.51 1022.67 1022.75 1022.63 1022.59 1022.47 1022.35 1022.27 1022.23 1022.31 1022.59 1023.11 1022.99 1023.23 1023.47 1023.63 1023.83 1023.95 1024.11 1024.31 1024.43 1024.55 1024.63 1024.63 1024.71 1024.95 1025.19 1025.31 1025.31 1025.31 1025.35
1023.43 1023.55 1023.59 1023.67 1023.71 1023.71 1023.63 1023.59 1023.63 1023.71 1023.75 1023.75 1023.59 1023.59 1023.71 1023.71 1023.79 1023.63 1023.31 1022.91 1022.63 1022.27 1021.99 1021.83 1021.79 1021.75 1021.67 1021.51 1021.39 1021.39 1021.39 1021.39 1021.59 1021.83 1021.95 1022.07 1022.23 1022.47 1022.75 1022.83 1022.87 1022.87 1023.15 1023.19 1023.07 1023.15 1023.43 1023.51 1023.55 1023.27 1022.91 1022.51 1022.55 1022.79 1022.95 1023.19 1023.31 1023.19 1023.39 1023.67 1023.71 1023.75 1023.83 1024.03 1024.39 1024.63 1024.55 1024.63 1024.71 1024.87 1025.03 1025.11 1025.19 1025.23
1023.47 1023.63 1023.79 1023.79 1023.79 1023.71 1023.59 1023.51 1023.35 1023.19 1023.27 1023.23 1023.27 1023.43 1023.47 1023.67 1023.67 1023.47 1023.07 1022.79 1022.55 1022.31 1022.23 1022.19 1022.11 1021.95 1021.71 1021.71 1021.79 1021.87 1022.23 1022.31 1022.47 1022.67 1022.71 1022.59 1022.55 1022.79 1023.07 1023.23 1023.31 1023.47 1023.55 1023.75 1023.75 1023.59 1023.59 1023.67 1023.87 1023.99 1023.91 1023.67 1023.35 1023.51 1023.55 1023.35 1023.39 1023.55 1023.75 1023.71 1023.75 1023.83 1023.99 1024.11 1024.23 1024.31 1024.51 1024.55 1024.63 1024.67 1024.75 1024.87 1024.95 1025.03
1023.83 1023.91 1023.91 1023.79 1023.67 1023.63 1023.51 1023.47 1023.27 1023.07 1022.87 1022.91 1023.03 1023.23 1023.59 1023.67 1023.35 1023.07 1022.79 1022.55 1022.39 1022.39 1022.27 1022.11 1021.99 1021.87 1021.75 1021.71 1021.79 1021.87 1022.03 1022.15 1022.31 1022.51 1022.87 1023.03 1023.19 1023.31 1023.43 1023.55 1023.63 1023.67 1023.71 1023.83 1023.91 1023.95 1024.03 1023.99 1024.15 1024.23 1024.11 1024.03 1023.99 1023.87 1023.87 1024.11 1024.11 1024.03 1023.99 1024.07 1024.07 1023.79 1023.87 1023.95 1024.03 1024.27 1024.43 1024.55 1024.63 1024.71 1024.83 1024.87 1024.91 1024.95
1023.87 1023.79 1023.71 1023.51 1023.39 1023.35 1023.27 1023.27 1023.11 1022.99 1023.07 1023.23 1023.35 1023.47 1023.63 1023.43 1023.19 1022.83 1022.47 1022.23 1022.15 1022.43 1022.47 1022.35 1022.11 1022.11 1022.19 1022.19 1022.07 1021.95 1022.11 1022.27 1022.51 1022.63 1022.87 1023.15 1023.43 1023.55 1023.55 1023.67 1023.87 1023.87 1023.99 1024.15 1024.15 1024.27 1024.27 1024.39 1024.39 1024.27 1024.27 1024.11 1024.07 1024.23 1024.23 1024.31 1024.23 1024.11 1024.03 1024.19 1024.15 1024.03 1023.91 1024.07 1024.11 1024.19 1024.27 1024.39 1024.59 1024.71 1024.71 1024.79 1024.83 1024.83
1024.19 1024.07 1023.91 1023.67 1023.47 1023.35 1023.19 1023.23 1023.15 1023.07 1023.15 1023.27 1023.11 1023.07 1023.15 1023.23 1023.11 1022.63 1022.43 1022.71 1023.15 1023.43 1023.27 1023.39 1023.31 1023.03 1022.63 1022.51 1022.47 1022.63 1022.87 1023.15 1023.19 1022.91 1022.99 1023.23 1023.35 1023.47 1023.75 1024.03 1024.35 1024.35 1024.39 1024.47 1024.55 1024.59 1024.63 1024.75 1024.75 1024.75 1025.11 1025.03 1025.03 1024.63 1024.47 1024.23 1024.27 1024.15 1024.11 1024.11 1024.19 1024.55 1024.15 1024.07 1023.99 1023.99 1024.07 1024.31 1024.43 1024.51 1024.63 1024.75 1024.75 1024.71
1024.99 1024.47 1023.87 1023.47 1023.07 1022.79 1022.79 1022.75 1022.75 1022.83 1022.87 1022.87 1022.87 1022.83 1022.83 1022.75 1022.67 1022.83 1023.03 1023.19 1023.43 1023.59 1023.67 1023.71 1023.63 1023.55 1023.47 1023.59 1023.67 1023.87 1024.03 1024.15 1024.03 1023.79 1023.75 1023.91 1024.15 1023.99 1023.71 1024.07 1024.51 1024.67 1024.83 1024.95 1024.99 1024.95 1024.91 1024.95 1025.03 1025.03 1024.99 1025.03 1025.07 1024.71 1024.43 1024.27 1024.31 1024.31 1024.35 1024.23 1024.27 1024.23 1024.11 1024.07 1024.03 1024.03 1024.23 1024.39 1024.47 1024.59 1024.63 1024.63 1024.67 1024.63
1025.07 1024.47 1023.99 1023.55 1022.99 1022.59 1022.63 1022.79 1023.03 1023.11 1023.19 1023.31 1023.31 1023.23 1023.19 1023.11 1023.31 1023.47 1023.59 1023.79 1024.11 1024.27 1024.19 1024.35 1024.39 1024.31 1024.27 1024.39 1024.43 1024.51 1024.71 1024.95 1024.99 1024.63 1024.47 1024.67 1024.71 1024.71 1024.83 1025.31 1025.59 1025.63 1025.67 1025.71 1025.55 1025.31 1025.19 1025.15 1025.11 1025.03 1024.95 1024.87 1024.75 1024.67 1024.67 1024.67 1024.43 1024.43 1024.51 1024.39 1024.23 1024.15 1024.07 1024.03 1024.07 1024.27 1024.35 1024.43 1024.63 1024.67 1024.67 1024.59 1024.59 1024.63
1025.51 1024.59 1024.15 1023.71 1022.99 1022.87 1023.11 1023.27 1023.43 1023.51 1023.59 1023.63 1023.63 1023.67 1023.63 1023.59 1023.95 1023.99 1024.07 1024.07 1024.39 1024.63 1024.79 1024.87 1024.95 1024.99 1024.95 1024.99 1025.03 1025.23 1025.51 1025.63 1025.63 1025.59 1025.39 1025.43 1025.31 1025.39 1025.67 1025.87 1025.99 1026.03 1025.99 1025.95 1025.79 1025.55 1025.31 1025.11 1025.03 1024.95 1024.87 1024.83 1024.75 1024.75 1024.79 1024.91 1024.87 1024.71 1024.59 1024.47 1024.19 1024.07 1023.99 1024.03 1024.19 1024.31 1024.43 1024.51 1024.59 1024.63 1024.63 1024.67 1024.59 1024.59
1024.79 1024.07 1023.79 1023.59 1023.75 1024.23 1024.35 1024.55 1024.55 1024.15 1024.11 1024.19 1024.27 1024.27 1024.19 1024.03 1024.19 1024.31 1024.27 1024.35 1024.47 1024.67 1024.91 1025.15 1025.35 1025.51 1025.59 1025.79 1025.87 1025.95 1025.95 1025.91 1025.91 1025.87 1025.83 1025.83 1025.79 1025.87 1025.99 1025.99 1026.07 1025.99 1025.95 1025.87 1025.75 1025.55 1025.43 1025.23 1025.19 1025.23 1025.15 1025.11 1025.15 1024.71 1024.51 1024.59 1024.83 1024.75 1024.63 1024.55 1024.35 1024.15 1024.15 1024.19 1024.27 1024.35 1024.39 1024.43 1024.43 1024.63 1024.75 1024.71 1024.63 1024.55
1023.99 1024.07 1024.07 1024.31 1024.59 1024.87 1025.15 1025.47 1025.51 1025.23 1024.99 1024.87 1024.87 1024.83 1024.71 1024.51 1024.35 1024.39 1024.63 1024.67 1024.87 1024.99 1025.11 1025.39 1025.67 1025.83 1025.95 1025.99 1026.03 1026.07 1026.07 1026.11 1026.11 1026.11 1026.03 1026.03 1026.03 1026.03 1025.95 1026.07 1026.23 1026.19 1026.11 1025.99 1025.75 1025.51 1025.39 1025.19 1024.99 1025.03 1025.11 1025.07 1024.99 1024.99 1024.83 1024.67 1024.71 1024.79 1024.87 1024.91 1024.75 1024.51 1024.43 1024.51 1024.51 1024.55 1024.51 1024.51 1024.47 1024.59 1024.75 1024.75 1024.63 1024.47
1024.55 1024.55 1024.67 1024.71 1024.99 1025.47 1025.87 1026.03 1026.11 1026.07 1025.75 1025.67 1025.63 1025.51 1025.35 1025.15 1024.95 1024.79 1024.99 1025.11 1025.23 1025.39 1025.43 1025.59 1025.83 1025.95 1026.07 1026.11 1026.03 1025.95 1025.95 1026.07 1026.27 1026.27 1026.31 1026.35 1026.31 1026.39 1026.39 1026.39 1026.39 1026.35 1026.23 1025.99 1025.67 1025.39 1025.27 1025.15 1024.91 1024.99 1025.19 1025.39 1025.55 1025.59 1025.43 1025.07 1024.83 1024.83 1024.83 1024.99 1024.91 1024.79 1024.75 1024.67 1024.67 1024.63 1024.55 1024.47 1024.43 1024.43 1024.51 1024.55 1024.51 1024.43
1024.87 1025.07 1025.15 1025.47 1025.75 1026.11 1026.39 1026.55 1026.63 1026.63 1026.43 1026.39 1026.27 1026.07 1025.79 1025.43 1025.35 1025.55 1025.51 1025.31 1025.39 1025.43 1025.63 1025.79 1025.95 1026.11 1026.19 1026.23 1026.31 1026.43 1026.39 1026.47 1026.47 1026.39 1026.43 1026.47 1026.51 1026.55 1026.59 1026.51 1026.39 1026.31 1026.23 1026.03 1025.79 1025.51 1025.43 1025.47 1025.55 1025.63 1025.63 1025.91 1025.99 1026.11 1026.07 1025.43 1025.19 1024.91 1024.87 1024.99 1025.07 1025.03 1024.95 1024.83 1024.79 1024.75 1024.55 1024.39 1024.35 1024.27 1024.31 1024.39 1024.39 1024.31
1025.27 1025.51 1025.79 1026.07 1026.43 1026.59 1026.87 1027.03 1027.19 1027.27 1027.07 1026.99 1026.71 1026.59 1026.31 1025.99 1026.11 1026.15 1026.11 1025.87 1025.67 1025.71 1025.79 1025.83 1025.95 1026.11 1026.31 1026.47 1026.55 1026.63 1026.59 1026.59 1026.63 1026.75 1026.67 1026.59 1026.59 1026.67 1026.67 1026.63 1026.55 1026.39 1026.27 1026.19 1026.11 1025.95 1025.79 1025.95 1025.99 1026.03 1025.99 1026.11 1026.19 1026.15 1025.99 1025.95 1025.63 1025.11 1024.91 1024.87 1024.95 1024.99 1024.83 1024.75 1024.75 1024.67 1024.59 1024.47 1024.27 1024.23 1024.23 1024.19 1024.11 1024.11
1025.71 1025.99 1026.23 1026.47 1026.71 1026.91 1027.03 1027.15 1027.31 1027.39 1027.39 1027.31 1027.11 1027.03 1026.71 1026.55 1026.59 1026.75 1026.75 1026.63 1026.39 1026.39 1026.47 1026.51 1026.47 1026.55 1026.63 1026.59 1026.67 1026.83 1026.91 1026.91 1026.87 1026.75 1026.71 1026.71 1026.71 1026.75 1026.83 1026.83 1026.71 1026.47 1026.39 1026.27 1026.19 1026.11 1026.15 1026.19 1026.19 1026.19 1026.11 1025.95 1025.87 1025.75 1025.59 1025.47 1025.27 1025.03 1024.83 1024.59 1024.55 1024.59 1024.55 1024.55 1024.59 1024.63 1024.55 1024.39 1024.27 1024.27 1024.27 1024.19 1024.19 1024.27
1026.15 1026.35 1026.55 1026.63 1026.75 1026.87 1027.07 1027.15 1027.31 1027.43 1027.47 1027.51 1027.51 1027.43 1027.07 1027.15 1027.15 1027.19 1027.15 1027.07 1026.95 1026.87 1026.95 1027.03 1026.99 1026.95 1026.95 1026.95 1026.87 1026.87 1026.91 1026.87 1026.79 1026.75 1026.71 1026.75 1026.75 1026.67 1026.71 1026.67 1026.43 1026.27 1026.35 1026.27 1026.11 1026.11 1026.19 1026.11 1026.03 1026.03 1026.03 1025.91 1025.75 1025.63 1025.55 1025.59 1025.59 1025.27 1025.03 1024.55 1024.19 1024.19 1024.23 1024.35 1024.35 1024.47 1024.51 1024.43 1024.39 1024.39 1024.39 1024.35 1024.35 1024.31
1026.47 1026.67 1026.79 1026.83 1026.83 1026.91 1027.07 1027.23 1027.35 1027.51 1027.59 1027.71 1027.83 1027.87 1027.63 1027.63 1027.67 1027.59 1027.51 1027.43 1027.31 1027.23 1027.19 1027.19 1027.15 1027.11 1027.03 1026.95 1026.95 1026.99 1027.03 1027.03 1027.03 1026.91 1026.79 1026.71 1026.63 1026.51 1026.47 1026.47 1026.31 1026.11 1026.27 1026.35 1026.23 1026.11 1025.95 1025.83 1025.83 1025.87 1025.83 1025.83 1025.83 1025.99 1026.15 1026.03 1025.99 1025.51 1024.95 1024.59 1024.35 1024.39 1024.39 1024.35 1024.27 1024.31 1024.47 1024.51 1024.35 1024.39 1024.39 1024.31 1024.35 1024.47
1026.63 1026.87 1027.11 1027.19 1027.23 1027.19 1027.27 1027.43 1027.63 1027.75 1027.83 1027.99 1028.19 1028.19 1028.11 1028.07 1028.03 1027.95 1027.87 1027.75 1027.63 1027.51 1027.47 1027.39 1027.31 1027.31 1027.31 1027.31 1027.23 1027.19 1027.11 1027.07 1027.03 1026.95 1026.75 1026.67 1026.55 1026.31 1026.27 1026.31 1026.15 1025.99 1026.07 1026.07 1025.91 1025.79 1025.71 1025.67 1025.63 1025.63 1025.63 1025.71 1025.75 1025.87 1026.11 1025.95 1025.67 1025.35 1024.95 1024.63 1024.31 1024.19 1024.27 1024.23 1024.27 1024.27 1024.35 1024.47 1024.43 1024.31 1024.35 1024.51 1024.79 1025.03
1026.91 1027.15 1027.43 1027.59 1027.71 1027.75 1027.67 1027.71 1027.87 1027.95 1028.07 1028.19 1028.31 1028.35 1028.39 1028.35 1028.31 1028.19 1028.07 1027.91 1027.79 1027.71 1027.55 1027.47 1027.43 1027.43 1027.39 1027.35 1027.31 1027.27 1027.23 1027.11 1026.95 1026.83 1026.75 1026.71 1026.59 1026.27 1026.11 1026.03 1025.95 1025.99 1025.95 1025.91 1025.79 1025.67 1025.63 1025.59 1025.47 1025.43 1025.43 1025.47 1025.43 1025.51 1025.51 1025.39 1025.19 1024.91 1024.67 1024.43 1024.27 1024.27 1024.15 1024.15 1024.19 1024.31 1024.31 1024.23 1024.19 1024.19 1024.23 1024.39 1024.35 1024.39
1027.47 1027.55 1027.75 1027.91 1028.03 1028.07 1028.03 1027.99 1027.99 1028.03 1028.11 1028.27 1028.39 1028.47 1028.43 1028.39 1028.31 1028.19 1028.11 1028.07 1027.99 1027.87 1027.79 1027.71 1027.59 1027.47 1027.35 1027.23 1027.15 1027.07 1026.95 1026.75 1026.63 1026.67 1026.75 1026.71 1026.51 1026.35 1026.27 1026.15 1026.15 1025.99 1026.03 1026.11 1026.07 1025.99 1025.87 1025.75 1025.59 1025.39 1025.35 1025.27 1025.15 1025.07 1024.99 1024.95 1024.83 1024.67 1024.47 1024.35 1024.19 1024.11 1024.11 1024.11 1024.11 1024.03 1024.07 1023.99 1023.75 1023.71 1023.83 1023.99 1024.15 1024.23
Wind_Speed
3 3 3 3 4 3 2 3 3 3 3 3 2 2 3 3 4 4 4 3 6 11 10 7 6 8 8 7 7 7 6 7 8 5 5 5 4 7 10 10 10 10 10 10 9 10 10 9 9 9 9 9 8 8 7 7 6 7 8 8 8 6 5 5 4 5 7 8 8 8 7 8 9 9
3 3 3 3 4 2 2 2 3 3 4 4 4 4 4 5 4 3 4 4 1 3 6 8 7 8 8 8 6 6 6 11 9 7 6 5 5 8 9 10 10 10 9 9 9 9 9 9 9 8 8 8 7 6 5 6 5 5 6 7 6 6 5 4 3 5 5 5 5 6 7 8 8 8
5 4 3 3 3 2 1 1 1 2 3 3 5 5 5 4 4 4 4 4 1 3 4 6 8 8 9 8 7 7 6 9 8 8 6 6 9 9 7 9 9 9 9 9 8 8 8 8 8 7 7 7 6 6 6 5 5 5 6 5 5 5 5 4 3 3 4 5 6 6 7 7 8 9
5 4 4 3 3 2 1 1 1 2 3 4 3 2 3 6 4 3 4 4 4 1 5 6 8 10 9 8 8 7 7 8 8 7 6 8 11 6 4 7 9 9 9 9 8 9 8 7 7 6 7 7 7 6 5 5 6 5 5 5 4 4 4 4 3 3 4 4 4 5 5 7 7 8
6 4 4 4 3 2 3 2 2 3 5 4 5 3 4 5 5 4 3 4 3 3 4 6 7 8 7 8 9 8 6 6 6 8 7 9 6 5 5 5 7 8 9 9 9 8 8 7 7 7 6 6 5 5 4 3 3 4 4 4 4 3 3 3 4 3 3 3 3 4 5 6 6 7
4 4 4 4 3 3 4 3 5 5 3 3 4 3 3 7 6 5 4 4 4 4 1 4 5 6 6 6 9 8 8 6 6 9 8 7 6 6 5 5 5 8 8 9 9 8 8 7 6 6 5 5 4 4 4 4 4 3 4 4 3 3 3 3 4 3 1 3 3 3 4 4 4 4
4 3 3 4 3 4 5 5 2 2 3 4 5 5 3 4 4 4 4 4 4 5 3 2 5 4 5 4 8 9 8 7 6 9 8 8 7 6 6 6 6 9 10 11 10 11 10 8 7 7 6 6 5 5 5 5 5 5 5 5 4 4 3 3 3 3 2 1 2 3 3 3 3 5
5 3 3 3 1 4 4 3 3 2 3 3 4 4 5 4 6 6 4 4 4 3 4 4 4 5 5 3 8 9 7 7 6 8 8 8 8 6 9 8 7 11 16 14 14 13 12 12 10 9 8 7 7 7 7 7 6 6 6 6 6 5 4 4 4 3 3 3 3 4 4 4 4 5
5 4 3 6 7 3 1 3 4 3 3 1 5 5 2 3 4 2 2 3 7 6 6 5 1 6 4 3 4 10 8 6 5 6 10 9 9 8 7 9 10 15 22 17 14 12 11 11 11 11 10 9 8 8 7 6 6 5 6 6 6 6 5 5 5 5 5 4 3 4 4 3 4 5
4 6 5 4 2 1 2 1 0 1 1 4 2 3 2 3 3 1 1 2 2 3 5 6 3 5 4 5 3 8 8 8 6 5 7 9 9 9 7 8 7 8 6 6 7 9 10 11 12 11 10 10 9 8 7 6 5 5 6 6 6 6 7 6 6 6 5 5 4 3 2 2 2 5
4 6 6 4 3 2 2 1 1 1 2 3 3 1 3 3 4 1 1 2 0 0 2 4 4 3 5 5 5 4 10 10 8 7 5 6 8 8 9 6 3 6 9 12 14 12 12 12 10 10 10 10 10 9 9 8 7 7 8 8 7 7 7 7 7 6 5 4 3 2 1 1 3 5
3 5 4 3 3 4 4 2 4 5 3 2 1 2 2 2 4 1 2 1 2 1 2 1 2 3 2 4 4 3 6 8 7 8 7 7 6 7 8 7 7 6 8 9 7 7 7 7 9 10 10 10 10 9 8 9 9 10 10 9 9 8 7 7 6 5 4 3 2 2 3 3 3 4
4 4 6 7 6 7 9 11 9 6 6 4 4 4 3 1 2 0 1 1 2 3 1 4 3 2 2 2 2 5 4 3 6 6 7 7 8 7 7 6 8 9 10 8 8 8 9 8 7 7 6 7 8 8 10 7 10 11 11 10 10 9 9 7 6 5 4 3 2 2 2 3 4 5
2 8 6 6 10 9 9 10 10 10 11 9 6 3 5 6 4 4 4 3 2 1 2 1 1 2 0 3 4 2 3 4 1 2 4 6 6 6 6 5 5 9 9 9 8 8 7 8 7 7 7 6 9 6 7 7 9 11 12 12 11 11 10 8 7 6 4 3 1 1 3 4 6 6
1 5 5 4 6 7 6 7 10 11 10 10 9 9 9 6 4 4 4 4 3 1 2 3 1 1 1 3 2 2 6 3 5 5 3 3 3 3 3 4 2 6 11 9 9 8 8 9 9 8 8 7 8 8 9 12 14 14 14 13 12 11 10 8 7 5 4 3 0 1 3 5 6 7
1 2 4 3 3 2 2 3 4 5 8 10 9 8 6 7 7 6 3 2 3 4 5 3 1 2 2 3 4 3 1 2 3 2 6 8 3 2 2 2 3 1 2 6 7 9 8 10 8 7 8 8 9 11 11 15 15 15 15 13 13 12 11 9 7 5 4 2 1 3 4 5 6 7
1 1 2 2 2 3 6 3 2 3 4 5 6 5 5 2 1 2 3 2 1 2 3 3 5 4 1 1 1 3 3 4 3 1 1 2 4 5 6 6 6 2 1 1 1 0 3 8 6 6 7 8 8 9 13 17 16 16 15 14 13 12 10 9 7 5 4 4 5 4 4 5 6 8
13 13 10 8 7 8 9 10 9 8 4 3 2 2 0 1 3 2 2 2 4 4 1 3 4 4 4 1 3 4 4 1 1 1 3 1 2 1 1 1 1 2 1 5 3 5 4 7 5 5 3 6 7 7 11 17 17 17 16 14 13 12 11 9 8 6 7 7 6 4 3 5 7 8
7 9 8 7 4 3 2 7 7 6 6 2 1 2 4 6 4 4 2 1 1 1 1 3 6 3 2 2 2 2 2 3 3 1 2 2 3 4 1 1 0 1 3 2 2 6 2 1 4 8 4 4 4 4 9 17 17 17 17 15 13 12 11 10 9 8 9 8 5 3 4 5 7 8
9 8 7 3 6 2 6 6 9 8 5 4 2 0 3 3 7 7 6 5 4 3 2 1 1 1 0 1 0 1 1 2 3 3 3 3 3 3 3 4 2 3 2 1 2 2 3 2 4 3 3 3 5 4 5 14 18 16 14 14 14 14 12 11 10 10 10 8 6 4 5 6 7 8
8 6 4 2 3 6 7 9 11 11 8 4 4 1 3 3 3 6 6 7 5 6 8 8 7 5 6 6 6 5 6 6 3 2 3 6 4 4 5 5 3 6 3 1 2 2 3 2 0 2 1 1 4 5 5 4 4 12 15 15 15 13 12 11 11 12 11 9 8 6 6 7 7 7
8 8 13 8 5 5 4 8 11 11 8 4 5 5 3 1 3 6 6 6 4 8 6 6 6 6 6 7 8 8 8 8 5 4 6 5 5 7 7 7 6 2 5 5 5 4 3 2 1 1 1 1 1 4 5 6 6 9 11 14 13 11 11 12 12 13 12 11 9 7 7 7 6 4
8 7 8 9 6 5 4 7 8 9 6 3 3 4 4 4 1 3 7 7 8 5 4 4 4 4 5 5 4 5 8 9 7 6 5 4 5 6 6 6 3 3 3 5 6 6 3 4 3 4 1 3 1 4 7 7 6 6 6 6 6 9 11 13 13 14 13 11 8 8 7 7 4 3
6 6 5 7 9 9 8 8 7 7 6 4 1 1 1 2 2 4 4 6 7 7 5 4 2 3 3 3 3 4 4 5 4 5 4 4 5 5 5 5 6 5 1 2 5 5 2 5 6 5 6 4 2 2 5 6 7 7 5 5 5 8 11 11 11 14 12 7 7 9 7 7 7 3
6 5 5 4 4 6 6 6 5 5 4 3 2 1 2 1 3 4 5 6 6 5 6 6 5 5 5 4 4 5 6 6 5 4 2 3 5 4 4 4 6 3 0 1 4 3 3 3 4 4 4 3 3 1 3 5 5 5 6 6 6 5 5 7 6 6 6 7 9 9 8 9 10 7
7 5 3 3 2 2 3 3 5 4 2 1 2 0 3 2 2 3 5 6 6 5 5 5 6 6 6 6 5 4 4 4 5 3 5 6 5 5 5 3 3 3 2 3 10 5 2 0 1 3 2 4 3 2 3 2 4 4 6 6 6 7 7 5 5 3 1 3 5 6 7 11 11 11
4 3 3 2 5 7 6 5 4 1 2 4 3 3 1 1 4 5 4 4 5 5 5 4 3 4 4 5 4 4 5 5 5 6 5 5 6 6 7 7 6 5 6 8 8 8 7 4 9 4 1 1 4 1 1 1 1 1 2 5 3 4 5 4 3 4 3 3 4 9 11 10 11 11
5 4 3 3 6 7 7 8 8 10 6 4 6 5 4 3 4 3 4 4 5 4 5 6 5 6 6 3 5 4 5 6 6 6 4 4 6 7 7 8 8 8 9 8 7 6 4 3 3 5 5 4 2 1 1 1 1 2 1 2 1 1 5 6 3 3 4 3 3 2 2 2 2 1
4 4 5 7 7 7 8 8 9 8 9 9 7 5 4 3 3 3 3 4 3 4 4 4 4 4 5 4 1 2 4 5 4 3 4 7 7 8 8 7 6 6 5 4 5 4 6 5 5 5 2 3 4 3 3 1 2 3 3 4 3 3 1 3 5 4 3 2 0 1 0 1 2 1
10 9 9 11 10 8 6 5 4 4 3 7 5 3 1 3 4 5 5 4 3 3 5 6 5 3 5 4 5 2 4 4 4 4 4 5 4 4 4 5 6 5 7 8 9 8 7 8 7 6 6 5 5 5 3 3 2 2 3 1 3 5 2 3 3 3 2 1 2 1 1 1 2 1
6 8 8 8 10 10 11 10 9 9 9 6 5 4 4 4 5 6 4 8 9 7 7 7 8 7 6 3 5 7 8 9 8 5 5 4 3 4 4 6 4 5 5 6 6 6 6 6 6 5 5 4 3 1 1 0 1 2 3 5 3 3 1 1 2 1 1 2 2 1 1 2 3 3
6 7 8 9 7 6 4 5 4 1 1 3 5 5 5 5 6 11 12 9 7 7 5 5 5 7 8 9 8 8 8 7 7 7 8 6 6 5 3 3 3 3 4 5 5 4 5 2 1 1 0 0 1 3 4 4 3 3 4 3 4 4 1 2 1 2 4 3 2 2 1 1 2 4
6 5 5 5 5 4 5 6 7 7 7 5 6 7 6 6 6 6 6 6 6 6 6 6 6 5 5 6 5 6 7 8 8 7 6 6 5 6 7 7 5 5 4 4 3 4 2 1 1 1 1 1 2 2 3 4 3 3 4 4 3 2 1 2 4 3 2 2 2 2 2 3 3 1
3 3 4 5 2 4 4 5 6 5 5 5 5 6 8 6 6 6 5 5 5 5 5 5 5 5 4 6 6 7 6 6 6 7 7 5 5 7 6 6 5 3 2 3 3 4 5 4 4 4 5 3 3 3 2 3 4 4 4 5 3 1 1 4 4 3 3 1 1 3 3 3 3 2
2 4 4 4 8 9 10 9 8 6 7 7 6 5 5 7 5 5 6 5 5 5 5 6 6 5 6 5 5 5 5 5 4 5 5 5 6 6 5 6 5 5 6 5 5 5 4 6 5 4 3 4 3 4 6 7 4 3 3 5 5 3 3 3 3 4 3 3 2 2 2 3 4 0
6 6 7 8 6 7 8 8 8 8 7 7 6 6 6 6 5 4 4 5 5 4 5 5 5 5 4 4 4 4 3 4 5 5 5 6 6 5 5 6 5 5 5 5 5 5 4 4 3 3 4 4 3 5 5 6 4 2 4 3 5 5 3 4 3 3 4 3 2 2 3 3 4 3
6 6 6 6 8 9 7 7 7 8 8 8 7 6 5 6 5 7 5 5 6 4 4 5 5 4 4 3 3 3 3 4 4 4 5 5 6 4 2 1 1 2 3 5 5 5 4 3 0 1 4 4 4 4 4 3 4 3 3 3 3 4 3 2 2 3 3 1 3 2 3 3 3 2
6 5 7 8 8 8 8 7 6 6 6 6 6 6 7 6 6 8 9 5 3 3 4 4 4 3 3 4 4 4 4 4 3 4 3 3 3 3 3 3 3 3 4 4 5 3 4 6 6 6 5 5 4 4 3 5 4 4 2 1 2 5 4 3 4 3 4 2 2 3 2 4 2 2
6 6 6 7 7 6 5 5 5 6 7 7 6 6 6 6 7 8 8 6 3 3 3 3 3 3 3 4 5 4 4 5 5 5 4 4 3 3 3 3 3 4 4 3 4 5 4 5 5 5 4 3 1 2 1 2 3 5 5 7 4 4 4 2 2 3 3 3 3 2 2 2 3 2
7 6 7 6 6 5 4 4 4 4 5 6 6 7 6 5 5 6 6 6 6 6 7 6 5 6 5 4 4 4 4 3 3 2 4 3 3 2 2 2 3 3 4 3 3 3 4 4 4 4 4 3 4 4 5 4 4 4 5 7 11 10 6 1 0 1 4 3 1 3 4 4 4 1
6 6 6 5 4 4 4 4 4 4 4 5 6 7 6 7 6 5 5 6 5 5 5 5 5 4 4 4 4 3 3 3 3 3 1 1 1 0 0 2 2 0 1 4 2 2 1 1 3 4 3 4 3 3 4 4 5 5 6 6 8 12 9 3 2 1 3 1 2 3 4 2 2 3
5 6 5 5 4 5 5 5 4 4 5 4 5 5 4 5 5 7 6 6 5 5 4 4 4 4 4 4 4 3 3 2 2 2 2 3 1 2 2 2 2 1 2 3 3 2 2 2 2 2 3 2 3 3 4 5 5 6 6 5 5 3 3 6 5 2 2 1 0 1 2 3 2 3
5 5 6 5 6 5 5 5 5 4 4 4 4 4 4 4 4 5 4 4 3 3 3 3 4 4 4 4 4 5 3 1 1 2 2 3 5 3 1 2 2 1 1 1 4 4 2 1 2 3 3 1 2 2 4 5 5 5 4 4 3 3 3 6 7 8 8 5 3 5 3 2 0 2
6 6 5 5 5 5 5 4 5 5 3 4 3 3 3 3 3 4 3 3 3 3 2 2 3 2 1 0 1 1 3 3 2 3 2 3 5 5 3 3 1 3 2 3 5 4 2 2 3 3 3 3 3 3 5 4 5 5 6 5 2 1 4 5 4 5 6 8 11 11 10 9 9 7
6 5 5 5 4 4 4 4 3 3 3 4 4 3 3 2 2 3 3 4 4 5 5 5 4 4 3 4 2 2 2 4 3 2 2 3 4 4 3 3 3 3 3 5 5 5 5 5 6 5 3 3 3 2 4 4 5 4 4 4 6 4 2 1 1 4 5 5 9 13 12 12 11 10
Wind_Direction
150 151 164 139 110 108 146 178 182 161 137 196 179 181 169 159 146 153 136 135 149 152 136 133 126 113 112 120 130 139 154 153 153 130 118 118 116 120 121 121 120 121 123 123 124 121 119 118 119 118 116 114 114 109 111 106 108 108 109 108 105 99 97 94 87 76 67 64 60 54 49 40 34 29
170 148 147 115 121 136 179 195 149 138 185 191 156 201 170 177 152 150 143 146 169 123 120 131 133 133 132 141 158 147 149 178 158 134 129 125 132 137 132 134 133 133 134 132 131 131 132 131 131 130 129 127 125 124 124 123 126 130 125 120 118 114 101 92 97 88 75 67 68 52 38 33 26 22
155 155 141 120 118 132 204 92 83 140 194 196 182 205 178 146 140 145 128 136 223 131 135 127 137 138 149 162 160 147 159 181 153 134 132 134 145 145 146 149 149 148 146 143 141 143 144 144 143 143 142 144 148 152 156 159 161 161 139 129 131 127 112 95 68 74 67 51 39 35 20 16 13 7
148 149 136 130 133 178 105 99 212 233 237 217 162 121 111 129 132 127 140 134 169 179 130 137 139 149 163 163 144 141 163 177 168 140 132 143 151 152 158 170 164 160 157 158 159 157 154 158 160 161 162 165 169 175 175 178 179 151 145 151 141 127 119 107 84 65 55 42 27 26 7 11 7 360
151 148 140 141 150 152 123 186 230 231 228 152 137 143 123 121 136 147 130 131 128 54 126 136 148 161 157 148 143 152 153 158 162 142 133 151 168 165 168 174 185 177 173 172 175 165 163 173 180 173 176 173 186 172 176 181 157 158 163 158 147 144 141 132 111 75 48 32 33 22 15 17 8 359
128 131 150 154 136 158 169 215 206 217 176 139 130 146 164 141 164 180 160 141 122 128 115 136 135 145 170 142 156 151 154 170 165 138 149 168 182 173 168 166 185 201 192 188 184 180 180 188 193 171 180 177 182 190 197 199 188 192 176 173 181 181 183 174 130 102 64 48 36 34 40 31 13 350
128 137 139 137 147 179 202 207 191 188 225 184 154 163 168 126 151 173 116 121 123 143 185 167 144 144 199 154 157 150 157 176 167 146 161 170 191 182 176 178 187 194 206 200 196 192 192 192 193 187 188 189 194 203 206 206 199 199 196 193 204 199 187 164 127 133 113 94 86 75 77 50 16 6
127 139 120 70 212 188 188 209 125 232 279 308 88 76 55 66 62 88 156 158 120 139 156 242 163 151 193 216 149 145 161 171 193 153 167 176 193 204 179 190 189 191 200 205 203 200 196 192 191 193 193 198 202 205 206 201 199 196 196 197 200 193 180 157 159 145 147 134 107 109 90 53 14 5
107 97 73 127 237 173 182 93 143 258 298 39 79 86 82 82 85 43 1 122 159 152 169 202 206 153 161 221 153 147 161 175 204 177 166 185 192 211 204 188 194 184 197 199 201 203 206 205 198 193 196 202 206 209 207 202 199 200 196 193 191 180 171 169 162 163 156 141 110 82 76 48 9 346
144 139 130 203 182 108 72 66 96 300 8 58 91 123 177 135 117 154 42 5 117 148 175 167 214 147 166 200 222 158 160 167 184 213 180 184 191 201 224 221 193 178 160 178 203 209 212 217 211 203 199 200 205 209 208 202 200 204 197 188 181 176 170 167 164 159 148 129 118 93 63 37 333 333
130 142 146 161 121 120 95 51 4 26 33 23 26 43 70 29 85 69 130 263 209 202 154 161 189 181 184 168 210 185 165 167 179 186 216 197 192 198 203 204 137 164 179 197 194 195 196 200 202 209 208 205 203 204 205 198 191 194 190 184 183 175 171 169 164 150 136 138 132 138 191 261 303 332
123 103 117 108 84 63 56 49 39 34 11 40 1 354 49 89 135 169 278 294 346 145 247 166 206 228 174 199 177 218 166 171 184 191 187 208 209 206 203 189 164 171 175 185 197 208 204 215 208 203 208 211 205 205 206 201 189 188 184 182 177 173 165 164 158 155 160 158 173 199 233 258 288 309
118 106 73 75 88 89 86 83 87 83 71 54 31 6 355 49 65 81 351 74 352 336 47 349 8 341 357 309 245 231 241 195 198 202 186 202 208 202 196 203 169 167 177 194 186 195 194 200 202 194 202 208 195 210 204 197 191 188 183 179 173 169 167 165 168 174 178 180 196 239 286 310 309 308
71 102 102 103 111 110 109 110 103 84 75 72 71 60 47 20 39 38 22 51 107 285 39 7 260 249 54 302 318 296 287 268 251 226 212 208 213 200 202 214 188 176 173 176 192 203 188 192 194 188 204 197 181 199 193 194 187 188 184 180 175 170 168 171 176 178 178 178 173 329 330 319 314 311
14 101 110 115 108 106 96 76 89 91 88 87 77 67 68 60 54 24 22 359 356 334 157 168 96 290 223 232 259 1 306 334 343 325 289 243 223 199 203 238 280 189 171 183 191 203 183 183 192 194 200 187 183 193 200 188 182 183 183 179 175 171 171 176 176 169 171 158 158 327 316 304 304 305
152 110 127 121 122 133 113 106 86 92 98 98 98 93 79 75 71 95 75 11 356 14 358 342 214 179 220 162 214 178 137 316 349 313 300 295 278 279 273 235 234 263 199 208 191 205 174 187 190 190 201 189 187 195 187 182 182 183 182 178 175 173 174 175 168 166 158 169 201 267 283 296 302 317
48 137 93 116 110 62 111 115 132 154 117 57 59 64 52 28 309 73 117 93 51 359 343 335 328 332 14 335 196 210 166 157 204 228 228 290 314 290 262 246 257 288 242 283 349 291 168 182 199 205 207 180 183 185 180 181 180 179 178 178 178 175 173 168 166 162 181 201 225 237 266 290 319 324
41 38 34 32 29 12 4 19 5 4 58 87 68 34 351 332 49 354 17 88 147 165 210 283 284 288 321 14 63 31 16 57 194 172 248 270 277 289 244 351 329 271 192 169 205 250 227 190 181 227 199 154 169 179 178 173 174 175 178 180 176 172 169 167 168 181 198 218 225 240 286 320 319 315
64 68 49 14 24 108 92 41 11 20 351 6 70 19 30 22 350 326 316 343 13 352 253 243 256 285 54 67 41 60 15 13 341 264 241 214 212 237 213 252 312 1 35 88 158 246 292 357 181 221 159 150 141 151 164 168 171 175 179 175 169 167 171 174 178 193 213 224 228 247 280 293 298 300
52 49 60 49 290 341 74 34 39 37 353 329 299 44 51 337 304 304 291 250 193 246 296 314 17 348 242 174 226 319 294 295 278 302 275 262 253 246 238 237 206 221 187 106 144 196 217 215 185 215 61 108 160 171 172 184 176 176 165 165 171 173 176 178 190 208 220 228 230 240 259 270 284 297
68 60 52 108 289 32 30 10 27 22 15 359 351 16 147 162 257 286 302 290 218 200 202 217 216 198 195 210 219 230 230 228 263 261 264 255 247 248 252 258 237 244 170 233 151 154 227 251 144 81 2 96 132 159 160 133 181 169 169 170 175 177 176 183 200 216 226 230 228 229 245 259 270 285
81 61 58 48 58 62 44 19 35 21 25 8 353 346 0 42 292 277 282 288 241 211 239 255 248 229 219 215 220 218 216 225 220 194 222 230 215 238 232 245 238 212 165 197 155 158 226 164 130 127 166 85 140 120 145 153 165 183 176 177 177 181 184 195 212 221 226 225 222 225 235 250 264 274
93 70 56 60 59 68 70 65 53 41 32 41 15 9 342 309 294 44 341 312 302 302 286 261 238 243 215 208 204 204 208 215 219 231 244 268 251 249 250 243 250 248 246 218 168 183 201 145 212 134 156 231 268 131 148 157 166 184 190 188 189 193 191 207 217 226 231 223 212 218 227 244 255 269
105 101 79 44 29 33 36 43 52 57 55 63 40 336 340 12 332 324 314 298 303 301 285 296 291 263 226 192 200 167 189 213 221 229 247 260 273 273 264 257 228 247 225 234 169 182 190 172 204 192 164 155 246 233 146 164 180 190 182 172 188 206 205 220 232 240 242 221 209 219 221 238 240 238
91 82 67 74 27 25 18 26 39 56 59 61 29 343 7 99 290 300 290 292 291 274 281 280 282 274 265 240 208 200 194 190 194 205 257 1 26 19 350 332 325 329 238 299 307 182 187 188 186 198 186 153 181 168 157 158 182 181 191 183 193 185 185 223 231 246 258 217 215 217 216 223 238 219
63 64 59 56 60 56 46 13 4 353 48 59 303 22 116 187 220 272 282 278 274 264 259 269 274 274 278 283 276 260 229 196 174 119 73 63 56 45 31 17 338 275 253 7 18 3 36 340 280 232 177 156 221 145 142 135 141 170 178 175 164 178 186 201 220 246 210 147 189 198 213 228 239 237
77 77 57 42 10 360 344 334 319 283 242 238 208 173 171 233 283 273 267 279 293 290 287 290 282 286 283 276 283 306 326 359 43 57 75 77 72 55 39 28 28 44 51 33 25 35 19 358 9 342 315 110 120 41 78 85 322 355 106 162 181 209 216 169 110 124 143 140 138 179 203 224 232 244
49 38 29 356 321 321 319 318 319 313 311 265 259 269 268 305 285 269 268 264 265 286 304 306 300 295 291 314 313 17 55 58 39 37 29 51 62 58 50 41 42 42 46 37 32 36 33 55 68 33 22 33 53 84 42 358 41 49 33 338 357 71 78 91 132 105 75 72 53 71 38 341 339 75
12 333 310 307 309 312 313 312 305 300 291 276 257 283 335 311 274 264 261 267 282 284 280 278 290 288 303 316 353 136 116 111 106 91 67 60 58 66 64 57 50 50 48 58 64 55 32 25 56 42 8 23 58 16 62 316 25 342 7 359 333 329 75 134 112 104 99 84 90 75 75 54 340 16
1 0 335 317 314 311 298 303 304 309 353 3 357 354 321 290 273 263 267 273 270 339 337 336 311 344 12 348 332 50 98 86 104 117 95 83 86 88 79 66 41 38 40 36 33 24 33 28 18 15 27 10 33 19 12 30 337 336 307 260 269 325 296 91 85 122 119 110 100 74 9 9 321 344
351 329 319 291 286 271 272 276 282 289 297 301 279 259 236 250 260 280 344 19 37 31 25 22 13 351 333 345 14 30 35 40 18 32 82 103 129 122 113 100 88 68 59 53 48 41 45 38 26 23 24 360 332 284 270 255 289 331 339 344 341 267 252 141 108 83 128 128 114 88 59 32 344 322
325 313 305 300 285 274 265 261 253 279 40 27 12 11 12 358 356 23 41 53 38 30 22 23 17 19 22 21 29 45 49 41 30 29 50 37 43 25 76 69 67 67 64 53 38 34 69 28 31 303 300 317 310 323 357 11 348 311 289 298 306 292 69 75 2 17 80 77 56 36 10 350 329 303
320 328 307 302 319 20 19 21 32 35 33 21 14 6 9 2 33 44 30 33 42 20 26 25 18 26 50 54 38 44 45 35 26 6 47 41 46 41 58 71 58 42 36 28 353 337 15 350 339 354 335 308 309 335 349 330 300 310 322 296 287 321 2 39 55 71 76 66 64 41 349 339 313 18
289 290 320 298 329 29 32 40 30 29 33 25 10 3 1 13 48 39 36 36 58 51 46 34 41 27 38 45 51 64 58 43 39 29 41 43 44 61 54 60 49 41 50 17 359 336 330 328 336 321 320 317 315 299 281 262 283 290 266 272 270 301 21 71 52 62 69 86 56 358 351 329 304 97
254 305 317 357 35 30 31 26 16 14 26 20 16 11 4 358 46 55 43 38 42 51 55 43 38 41 51 59 54 67 68 73 57 48 44 58 55 62 60 58 30 16 7 356 334 309 298 294 296 291 283 277 302 292 244 227 240 299 336 346 339 17 17 39 43 25 29 2 27 5 327 312 303 177
8 20 28 39 39 39 38 29 15 11 13 18 13 5 359 349 354 41 62 55 56 34 54 58 66 64 68 74 72 76 72 66 58 50 43 41 48 42 41 47 31 353 336 319 293 290 283 299 350 10 15 354 0 343 351 328 44 72 34 345 341 355 11 31 28 30 18 355 357 356 297 280 280 284
48 29 32 33 39 42 34 27 20 7 10 10 9 2 352 353 356 11 37 80 65 56 57 70 63 63 74 77 80 81 72 71 69 61 63 49 52 48 51 350 311 290 300 287 285 289 294 270 141 31 28 8 12 355 318 308 359 38 75 21 331 339 350 355 13 345 305 287 300 287 266 271 274 283
61 40 35 40 37 46 35 29 18 10 8 6 1 355 350 351 6 21 8 20 62 86 78 78 77 65 42 23 30 31 46 50 56 66 76 65 53 22 8 20 2 337 331 320 317 321 11 15 28 32 40 42 12 12 349 326 347 334 17 82 275 279 309 340 344 300 298 292 254 266 294 304 265 257
57 57 54 55 46 43 41 33 34 15 7 356 357 357 347 6 26 16 9 3 27 65 86 85 74 68 69 66 54 50 42 37 39 51 59 55 51 53 30 21 359 335 336 344 10 356 14 42 29 30 29 31 41 251 237 265 279 268 270 226 220 260 281 264 271 295 292 301 300 330 304 238 238 50
58 56 56 59 56 50 47 48 46 35 13 7 356 353 345 26 35 29 13 10 16 31 39 43 48 47 40 43 68 73 67 73 76 64 56 52 60 66 37 349 293 298 337 343 14 349 19 32 16 354 329 302 263 250 234 240 257 269 280 272 228 210 224 195 213 297 311 288 327 12 318 329 312 288
56 55 51 58 63 65 56 50 51 38 28 18 8 348 5 32 29 29 30 26 28 36 46 46 46 53 48 42 35 46 54 43 34 25 9 116 105 86 213 259 284 208 353 309 332 13 23 303 276 267 269 282 298 349 0 353 324 318 306 292 282 225 203 166 189 200 239 278 346 302 297 311 338 332
58 58 52 36 45 50 54 53 47 41 34 34 20 9 17 28 29 22 28 20 27 30 38 38 35 38 28 23 36 53 77 48 22 335 344 327 271 217 232 278 274 73 38 339 330 298 244 232 225 254 270 315 343 342 304 292 300 303 296 304 330 10 205 251 264 225 222 233 94 19 346 340 17 329
63 64 54 36 27 33 45 51 47 41 36 47 40 22 19 26 19 24 18 17 21 39 43 41 35 39 30 22 6 349 0 2 270 257 239 265 270 292 275 223 243 152 162 247 249 251 239 214 254 254 264 261 243 209 257 265 263 268 281 308 305 303 297 269 260 260 269 257 209 205 192 179 50 269
54 62 62 47 33 26 25 42 54 52 51 54 54 44 37 24 24 12 6 7 11 4 13 41 61 60 41 299 273 308 305 287 272 302 324 312 301 295 313 326 342 45 352 295 305 307 289 294 281 244 248 258 237 222 250 268 281 280 281 283 284 250 264 278 289 298 288 277 258 240 230 215 218 227
39 48 55 60 49 33 19 23 44 57 71 71 57 40 36 38 26 15 17 23 15 12 18 17 14 12 359 327 315 301 279 263 266 226 234 299 316 357 23 21 14 336 348 6 12 358 0 343 322 326 303 293 278 249 258 253 261 278 290 297 298 284 263 194 197 259 258 274 257 244 242 234 233 244